User: anonymous   Login
Location: Caltech
(34.1382°N, 118.1253°W)
Time: 21:05:49
(UTC-07:00)
Language:

ADEOS II - Orbit

View from above orbital plane
View from above orbital plane
View from above satellite
View from above satellite

Ground track
Ground track

The orbit data is extracted from the following two-line orbital elements,

1 27597U 02056A   15116.53214065  .00000394  00000-0  17868-3 0  9992
2 27597 098.2854 112.7160 0002252 099.4822 008.4566 14.27064926643789
Epoch (UTC): 26 April 2015 12:46:16
Eccentricity: 0.0002252
inclination: 98.2854°
perigee height: 800 km
apogee height: 803 km
right ascension of ascending node: 112.7160°
argument of perigee: 99.4822°
revolutions per day: 14.27064926
mean anomaly at epoch: 8.4566°
orbit number at epoch: 64378

The dashed part of the orbit path shows where the satellite is in the earth's shadow,  

DLR